[Iaude] MPEC A107: 2024 AO2 [a=2.47,e=0.48,i=18.9,H=22.7]
    mpec at marsden.cfa.harvard.edu 
    mpec at marsden.cfa.harvard.edu
       
    Wed Jan 10 03:37:55 EST 2024
    
    
  
M.P.E.C. 2024-A107                             Issued 2024 January 10, 08:36 UT
     The Minor Planet Electronic Circulars contain information on unusual
         minor planets, routine data on comets and natural satellites,
         and occasional editorial announcements.  They are published
    on behalf of Division F of the International Astronomical Union by the
          Minor Planet Center, Smithsonian Astrophysical Observatory,
                          Cambridge, MA 02138, U.S.A.
			  
             Prepared using the Tamkin Foundation Computer Network
                              MPC at CFA.HARVARD.EDU
            URL https://www.minorplanetcenter.net/    ISSN 1523-6714
                                    2024 AO2                                    
Observations:
     K24A02O* C2024 01 02.28593605 14 13.059+20 46 09.35         21.52wXEA107F52
     K24A02O  C2024 01 02.29687505 14 13.416+20 45 35.63         22.08wXEA107F52
     K24A02O  C2024 01 02.30782405 14 13.794+20 45 01.57         21.86wXEA107F52
     K24A02O  C2024 01 02.42090105 14 17.546+20 39 09.78         21.86GVEA107F52
     K24A02O  C2024 01 02.45633705 14 18.769+20 37 18.12         22.30GVEA107F52
     K24A02O  C2024 01 02.45698005 14 18.776+20 37 16.28         21.70GVEA107F52
     K24A02O KC2024 01 03.16637905 14 50.56 +20 00 44.7          21.9 GVEA107H21
     K24A02O KC2024 01 03.16972 05 14 51.25 +20 00 36.7          21.6 RVEA107291
     K24A02O KC2024 01 03.17210905 14 50.76 +20 00 27.0          21.8 GVEA107H21
     K24A02O KC2024 01 03.17351 05 14 51.40 +20 00 24.9          21.7 RVEA107291
     K24A02O KC2024 01 03.18050 05 14 51.61 +20 00 03.7          21.5 RVEA107291
     K24A02O KC2024 01 03.19350205 14 51.51 +19 59 21.5          22.0 GVEA107H21
     K24A02O KC2024 01 10.30255 05 20 33.30 +14 33 15.5                VEA107291
     K24A02O KC2024 01 10.31709 05 20 34.00 +14 32 40.0          22.5 RVEA107291
     K24A02O KC2024 01 10.33166 05 20 34.69 +14 32 04.8                VEA107291
Observer details:
291 LPL/Spacewatch II.  Observers M. J. Brucker, J. V. Scotti.  1.8-m f/2.7
    reflector + CCD.
F52 Pan-STARRS 2, Haleakala.  Observers J. Herman, T. Lowe, P. Minguez, A.
    Schultz, I. Smith.  Measurers K. Chambers, T. de Boer, J. Fairlamb, H.
    Gao, M. Huber, C.-C. Lin, E. Magnier, Y. Ramanjooloo, R. Wainscoat, R.
    Weryk.  1.8-m Ritchey-Chretien + CCD.
H21 Astronomical Research Observatory, Westfield.  Observer R. Holmes.
    Measurers T. Linder, R. Holmes, L. Horn.  0.81-m f/4.0 astrograph + CCD.
Orbital elements:
2024 AO2                                                 Earth MOID = 0.3266 AU
Epoch 2023 Sept. 13.0 TT = JDT 2460200.5                MPC                     
M 339.29116              (2000.0)            P               Q                  
n   0.25342050     Peri.  158.38818     +0.29379815     -0.89936620             
a   2.4730993      Node   273.33116     +0.82260251     +0.41040228             
e   0.4755510      Incl.   18.92389     +0.48683443     -0.15069972             
P   3.89           H   22.76          G   0.15           U   9                  
Residuals in seconds of arc
240102 F52  0.0   0.1-    240102 F52  0.1-  0.1-    240103 291  0.2-  0.1-
240102 F52  0.2-  0.1+    240103 H21  0.1+  0.2+    240103 H21  0.2-  0.2-
240102 F52  0.1-  0.0     240103 291  0.1+  0.2+    240110 291  0.5-  0.5-
240102 F52  0.1-  0.4+    240103 H21  0.1+  0.0     240110 291  0.0   0.2-
240102 F52  0.1+  0.3-    240103 291  0.3+  0.1-    240110 291  0.3+  0.6+
Ephemeris:
2024 AO2                 a,e,i = 2.47, 0.48, 19                  q = 1.2970
Date    TT    R. A. (2000) Decl.     Delta      r    Elong.  Phase     V
2023 12 11    05 01 43.8 +43 07 31   0.3298  1.2992   159.7    15.2    21.8
...
2023 12 26    05 09 27.8 +27 36 46   0.3433  1.3175   164.5    11.5    21.7
...
2024 01 03    05 14 43.1 +20 09 24   0.3719  1.3344   157.4    16.4    22.1
...
2024 01 09    05 19 26.5 +15 27 48   0.4023  1.3502   151.3    20.5    22.4
2024 01 10    05 20 18.0 +14 45 50   0.4080  1.3531   150.3    21.1    22.5
2024 01 11    05 21 10.8 +14 05 17   0.4139  1.3560   149.3    21.7    22.6
...
2024 01 17    05 26 54.6 +10 31 01   0.4529  1.3749   143.7    25.1    22.9
...
2024 01 25    05 35 42.5 +06 55 35   0.5132  1.4036   136.9    28.6    23.3
...
2024 02 09    05 55 15.4 +02 54 59   0.6473  1.4665   126.4    32.8    24.0
A. U. Tomatic                (C) Copyright 2024 MPC           M.P.E.C. 2024-A107
    
    
More information about the Iaude
mailing list